ONEWEB-0172

Last updated on Sun Apr 25 2021 00:02:03 GMT+0000 (Coordinated Universal Time)

1 48071U 21025AF 21114.58336806 -.01074849 00000-0 -46026-1 0 9992 2 48071 87.4206 339.3313 0008361 134.5191 108.8959 15.25739886 1764

Satellite not in orbit

ONEWEB-0172